Weather History for KRRT - November, 2011

Change the Weather History Date:

Sunday, November 13, 2011

  Actual Average Record
Temperature  
Mean Temperature 36 °F -  
Max Temperature 39 °F 32 °F 59 °F (2001)
Min Temperature 33 °F 19 °F -13 °F (1986)
Degree Days  
Heating Degree Days 29    
Moisture  
Dew Point 29 °F    
Average Humidity 79    
Maximum Humidity 87    
Minimum Humidity 65    
Precipitation  
Precipitation 0.00 in - - ()
Sea Level Pressure  
Sea Level Pressure 29.17 in    
Wind  
Wind Speed 10 mph (WSW)    
Max Wind Speed 13 mph    
Max Gust Speed 20 mph    
Visibility 10 miles    
Events Snow    
Averages and records for this station are not official NWS values.
T = Trace of Precipitation, MM = Missing Value Source: NWS Daily Summary

Daily Weather History Graph

Daily Weather History Graph

Search for Another Location

Airport or City:

Trip Planner

Search our weather history database for the weather conditions in past years. The results will help you decide how hot, cold, wet, or windy it might be!

Date:

Astronomy

Nov. 13, 2011 Rise Set
Actual Time 7:27 AM CST 4:43 PM CST
Civil Twilight 6:52 AM CST 5:17 PM CST
Nautical Twilight 6:14 AM CST 5:56 PM CST
Astronomical Twilight 5:37 AM CST 6:33 PM CST
Moon 6:43 PM CST (11/13) 10:10 AM CST (11/13)
Length of Visible Light 10h 25m
Length of Day
9h 16m
Waning Gibbous, 92% of the Moon is Illuminated
Nov 13
Waning Gibbous
Nov 18
Last Quarter
Nov 25
New
Dec 2
First Quarter
Dec 10
Full

Hourly Weather History & Observations

Time (CST) Temp. Windchill Dew Point Humidity Pressure Visibility Wind Dir Wind Speed Gust Speed Precip Events Conditions
12:14 AM 39.2 °F 32.5 °F 28.4 °F 65% 29.04 in 10.0 mi West 10.4 mph - N/A   Clear
12:34 AM 39.2 °F 32.5 °F 28.4 °F 65% 29.05 in 10.0 mi WSW 10.4 mph - N/A   Scattered Clouds
12:54 AM 37.4 °F 30.8 °F 30.2 °F 75% 29.05 in 10.0 mi West 9.2 mph - N/A   Scattered Clouds
1:14 AM 37.4 °F 30.8 °F 30.2 °F 75% 29.06 in 10.0 mi West 9.2 mph - N/A   Mostly Cloudy
1:34 AM 37.4 °F 30.8 °F 30.2 °F 75% 29.06 in 10.0 mi West 9.2 mph - N/A   Mostly Cloudy
2:14 AM 33.8 °F 25.8 °F 28.4 °F 81% 29.08 in 10.0 mi WNW 10.4 mph - N/A   Mostly Cloudy
2:34 AM 33.8 °F 25.3 °F 28.4 °F 81% 29.09 in 10.0 mi West 11.5 mph 17.3 mph N/A   Overcast
2:54 AM 33.8 °F 27.0 °F 30.2 °F 87% 29.09 in 10.0 mi West 8.1 mph - N/A   Overcast
3:14 AM 33.8 °F 26.4 °F 30.2 °F 87% 29.10 in 7.0 mi West 9.2 mph - N/A   Overcast
3:34 AM 33.8 °F 27.0 °F 30.2 °F 87% 29.10 in 7.0 mi West 8.1 mph - N/A   Overcast
3:54 AM 33.8 °F 26.4 °F 30.2 °F 87% 29.10 in 7.0 mi West 9.2 mph - N/A   Overcast
4:14 AM 33.8 °F 25.3 °F 30.2 °F 87% 29.11 in 7.0 mi West 11.5 mph 16.1 mph N/A   Overcast
4:34 AM 33.8 °F 25.8 °F 30.2 °F 87% 29.11 in 10.0 mi West 10.4 mph 17.3 mph N/A   Overcast
4:53 AM 33.8 °F 24.8 °F 30.2 °F 87% 29.11 in 10.0 mi West 12.7 mph - N/A   Overcast
5:14 AM 33.8 °F 25.8 °F 30.2 °F 87% 29.11 in 10.0 mi West 10.4 mph - N/A   Overcast
5:34 AM 33.8 °F 25.8 °F 30.2 °F 87% 29.12 in 10.0 mi West 10.4 mph 16.1 mph N/A   Overcast
5:53 AM 33.8 °F 25.3 °F 30.2 °F 87% 29.13 in 10.0 mi West 11.5 mph 17.3 mph N/A   Overcast
6:14 AM 33.8 °F 24.8 °F 30.2 °F 87% 29.14 in 7.0 mi West 12.7 mph - N/A   Overcast
6:54 AM 33.8 °F 25.8 °F 30.2 °F 87% 29.15 in 7.0 mi West 10.4 mph 16.1 mph N/A   Overcast
7:54 AM 33.8 °F 27.0 °F 30.2 °F 87% 29.17 in 10.0 mi West 8.1 mph 19.6 mph N/A   Overcast
8:14 AM 33.8 °F 27.0 °F 30.2 °F 87% 29.18 in 10.0 mi WSW 8.1 mph - N/A   Overcast
8:33 AM 33.8 °F 25.3 °F 28.4 °F 81% 29.18 in 10.0 mi West 11.5 mph - N/A   Overcast
8:54 AM 33.8 °F 26.4 °F 28.4 °F 81% 29.19 in 10.0 mi WSW 9.2 mph - N/A   Overcast
9:14 AM 33.8 °F 26.4 °F 28.4 °F 81% 29.19 in 10.0 mi West 9.2 mph - N/A   Overcast
9:34 AM 33.8 °F 25.8 °F 28.4 °F 81% 29.19 in 10.0 mi WSW 10.4 mph 16.1 mph N/A   Overcast
9:54 AM 33.8 °F 25.3 °F 28.4 °F 81% 29.20 in 10.0 mi West 11.5 mph - N/A   Overcast
10:14 AM 33.8 °F 26.4 °F 28.4 °F 81% 29.20 in 10.0 mi West 9.2 mph 17.3 mph N/A   Overcast
10:34 AM 33.8 °F 24.8 °F 28.4 °F 81% 29.21 in 10.0 mi WSW 12.7 mph 16.1 mph N/A   Overcast
10:54 AM 35.6 °F 28.0 °F 28.4 °F 75% 29.20 in 10.0 mi WSW 10.4 mph 16.1 mph N/A   Overcast
11:14 AM 35.6 °F 27.5 °F 28.4 °F 75% 29.20 in 10.0 mi West 11.5 mph - N/A   Overcast
11:34 AM 35.6 °F 28.0 °F 28.4 °F 75% 29.19 in 10.0 mi West 10.4 mph 19.6 mph N/A   Overcast
11:54 AM 35.6 °F 28.0 °F 28.4 °F 75% 29.20 in 10.0 mi West 10.4 mph 18.4 mph N/A   Overcast
12:14 PM 35.6 °F 28.6 °F 28.4 °F 75% 29.20 in 10.0 mi WSW 9.2 mph - N/A   Overcast
12:33 PM 35.6 °F 28.0 °F 28.4 °F 75% 29.20 in 10.0 mi WSW 10.4 mph - N/A   Overcast
12:54 PM 35.6 °F 28.0 °F 28.4 °F 75% 29.20 in 10.0 mi West 10.4 mph - N/A   Overcast
1:14 PM 35.6 °F 28.6 °F 28.4 °F 75% 29.20 in 10.0 mi WSW 9.2 mph - N/A   Overcast
1:33 PM 35.6 °F 28.6 °F 28.4 °F 75% 29.20 in 10.0 mi West 9.2 mph - N/A   Overcast
1:54 PM 35.6 °F 29.9 °F 28.4 °F 75% 29.20 in 10.0 mi West 6.9 mph - N/A   Overcast
2:14 PM 35.6 °F 28.6 °F 28.4 °F 75% 29.21 in 10.0 mi West 9.2 mph - N/A   Overcast
2:33 PM 35.6 °F 29.9 °F 28.4 °F 75% 29.21 in 10.0 mi West 6.9 mph - N/A   Overcast
2:54 PM 35.6 °F 29.9 °F 28.4 °F 75% 29.21 in 10.0 mi SW 6.9 mph - N/A   Overcast
3:14 PM 35.6 °F 28.6 °F 28.4 °F 75% 29.22 in 10.0 mi WSW 9.2 mph - N/A   Overcast
3:33 PM 35.6 °F 29.2 °F 28.4 °F 75% 29.22 in 10.0 mi WSW 8.1 mph - N/A   Overcast
4:14 PM 35.6 °F 29.9 °F 28.4 °F 75% 29.23 in 10.0 mi WSW 6.9 mph - N/A   Overcast
4:33 PM 35.6 °F 30.7 °F 28.4 °F 75% 29.24 in 10.0 mi SW 5.8 mph - N/A   Overcast
4:54 PM 35.6 °F 32.8 °F 28.4 °F 75% 29.25 in 10.0 mi SW 3.5 mph - N/A   Overcast
5:14 PM 35.6 °F 32.8 °F 28.4 °F 75% 29.25 in 10.0 mi SW 3.5 mph - N/A   Overcast
5:34 PM 35.6 °F 32.8 °F 28.4 °F 75% 29.26 in 10.0 mi SW 3.5 mph - N/A   Overcast
5:54 PM 35.6 °F 32.8 °F 28.4 °F 75% 29.26 in 7.0 mi SW 3.5 mph - N/A Snow Light Snow
6:14 PM 35.6 °F 31.7 °F 30.2 °F 81% 29.26 in 4.0 mi SW 4.6 mph - N/A Snow Light Snow
6:34 PM 33.8 °F 29.6 °F 30.2 °F 87% 29.27 in 4.0 mi SW 4.6 mph - N/A Snow Light Snow
6:54 PM 33.8 °F 29.6 °F 30.2 °F 87% 29.27 in 5.0 mi SW 4.6 mph - N/A Snow Light Snow
7:14 PM 33.8 °F 29.6 °F 28.4 °F 81% 29.27 in 7.0 mi SW 4.6 mph - N/A Snow Light Snow
7:34 PM 33.8 °F 30.8 °F 28.4 °F 81% 29.28 in 10.0 mi SW 3.5 mph - N/A   Overcast
7:54 PM 33.8 °F - 28.4 °F 81% 29.27 in 10.0 mi Calm Calm - N/A   Mostly Cloudy
8:14 PM 33.8 °F - 28.4 °F 81% 29.27 in 10.0 mi Calm Calm - N/A   Mostly Cloudy
8:34 PM 32.0 °F 28.7 °F 28.4 °F 87% 29.26 in 10.0 mi SSE 3.5 mph - N/A   Clear
8:54 PM 32.0 °F - 28.4 °F 87% 29.26 in 10.0 mi Calm Calm - N/A   Scattered Clouds
9:14 PM 33.8 °F - 28.4 °F 81% 29.26 in 10.0 mi Calm Calm - N/A   Overcast
9:34 PM 33.8 °F 30.8 °F 28.4 °F 81% 29.26 in 10.0 mi SSE 3.5 mph - N/A   Overcast
9:54 PM 32.0 °F 28.7 °F 28.4 °F 87% 29.25 in 10.0 mi SSE 3.5 mph - N/A   Overcast
10:15 PM 33.8 °F 28.6 °F 28.4 °F 81% 29.25 in 10.0 mi South 5.8 mph - N/A   Overcast
10:34 PM 33.8 °F 28.6 °F 28.4 °F 81% 29.24 in 7.0 mi SSE 5.8 mph - N/A   Overcast
10:54 PM 33.8 °F 30.8 °F 28.4 °F 81% 29.24 in 10.0 mi SSE 3.5 mph - N/A   Overcast
11:14 PM 32.0 °F 27.5 °F 28.4 °F 87% 29.23 in 10.0 mi ESE 4.6 mph - N/A   Overcast
11:34 PM 30.2 °F 26.7 °F 26.6 °F 86% 29.23 in 10.0 mi ESE 3.5 mph - N/A   Scattered Clouds
11:54 PM 28.4 °F 23.3 °F 24.8 °F 86% 29.23 in 10.0 mi SE 4.6 mph - N/A   Clear